sat.trackr.live / text

‹ back to catalog

STARLINK-11463 [DTC]

NORAD 62066 · 2024-217K

PAYLOAD ACTIVE UNKNOWN

§ Identity

Operator
Country
US
Launch date
2024-11-24
Launch site
AFWTR
Launch vehicle
Mass (kg)
RCS (m²)

Purposes: comms

External: N2YO · Heavens-Above · Gunter

§ Orbital elements

Epoch: 2026-05-25T03:41:49.354944Z

Period
91.73 min
Inclination
53.1588°
Eccentricity
0.0000756
Mean motion
15.69758892 rev/d
Perigee alt
359.1 km
Apogee alt
360.1 km
Semi-major
6,737.7 km
B*
1.2956e-3
RAAN
54.2771°
Arg perigee
88.0600°
Mean anomaly
272.0505°
Rev number
8,718

§ Raw data

STARLINK-11463 [DTC]1 62066U 24217K   26145.15404346  .00159747  00000+0  12956-2 0  99982 62066  53.1588  54.2771 0000756  88.0600 272.0505 15.69758892 87183

JSON: /api/v1/satellites/62066 · /tle

For live sub-satellite position, see the globe view (requires WebGL).

§ Visibility from observer

Set your observer location to see the next 7 days of passes ≥ 10°. The values pass through the URL so the page stays shareable.

No JS? Fill the form by hand. The geolocation button needs JavaScript.